| time (UTC) | temp F | wind direction | speed MPH | gust MPH | rain 1hr in | rain 24hr in | rain mn in | humidity % | barometer mb |
| 20260506024730 | 67 | 22 | 7.0 | 12.0 | 0.00 | 0.00 | 0.00 | 79 | 1007.3 |
| 20260506024230 | 67 | 337 | 7.0 | 11.0 | 0.00 | 0.00 | 0.00 | 79 | 1007.1 |
| 20260506023730 | 67 | 315 | 6.0 | 15.0 | 0.00 | 0.00 | 0.00 | 78 | 1006.7 |
| 20260506023230 | 68 | 360 | 6.0 | 13.0 | 0.00 | 0.00 | 0.00 | 78 | 1006.5 |
| 20260506022730 | 68 | 337 | 7.0 | 12.0 | 0.00 | 0.00 | 0.00 | 78 | 1006.5 |
| 20260506022229 | 68 | 360 | 8.0 | 12.0 | 0.00 | 0.00 | 0.00 | 78 | 1006.4 |
| 20260506021730 | 68 | 337 | 6.0 | 12.0 | 0.00 | 0.00 | 0.00 | 78 | 1006.2 |
| 20260506021230 | 68 | 360 | 7.0 | 11.0 | 0.00 | 0.00 | 0.00 | 78 | 1006.4 |
| 20260506020729 | 69 | 337 | 6.0 | 11.0 | 0.00 | 0.00 | 0.00 | 78 | 1006.1 |
| 20260506020230 | 69 | 337 | 5.0 | 11.0 | 0.00 | 0.00 | 0.00 | 78 | 1006.2 |
| 20260506015730 | 69 | 337 | 4.0 | 9.0 | 0.00 | 0.00 | 0.00 | 77 | 1005.8 |
| 20260506015230 | 69 | 360 | 5.0 | 9.0 | 0.00 | 0.00 | 0.00 | 77 | 1005.6 |
| 20260506014730 | 69 | 360 | 6.0 | 11.0 | 0.00 | 0.00 | 0.00 | 77 | 1005.9 |
| 20260506014230 | 70 | 360 | 7.0 | 12.0 | 0.00 | 0.00 | 0.00 | 76 | 1005.7 |
| 20260506013729 | 70 | 360 | 7.0 | 12.0 | 0.00 | 0.00 | 0.00 | 76 | 1005.9 |
| 20260506013230 | 70 | 360 | 6.0 | 10.0 | 0.00 | 0.00 | 0.00 | 76 | 1005.7 |
| 20260506012729 | 71 | 360 | 7.0 | 12.0 | 0.00 | 0.00 | 0.00 | 75 | 1005.4 |
| 20260506012230 | 72 | 360 | 7.0 | 16.0 | 0.00 | 0.00 | 0.00 | 75 | 1005.4 |
| 20260506011729 | 73 | 337 | 5.0 | 9.0 | 0.00 | 0.00 | 0.00 | 75 | 1005.4 |
| 20260506011229 | 73 | 337 | 3.0 | 10.0 | 0.00 | 0.00 | 0.00 | 75 | 1005.3 |
| 20260506010729 | 73 | 337 | 5.0 | 10.0 | 0.00 | 0.00 | 0.00 | 74 | 1004.7 |
| 20260506010229 | 73 | 360 | 5.0 | 11.0 | 0.00 | 0.00 | 0.00 | 73 | 1004.7 |
| 20260506005729 | 74 | 360 | 3.0 | 7.0 | 0.00 | 0.00 | 0.00 | 72 | 1004.9 |
| 20260506005229 | 74 | 360 | 3.0 | 7.0 | 0.00 | 0.00 | 0.00 | 72 | 1004.6 |
| 20260506004729 | 74 | 337 | 5.0 | 10.0 | 0.00 | 0.00 | 0.00 | 71 | 1004.6 |
| 20260506004229 | 74 | 337 | 7.0 | 10.0 | 0.00 | 0.00 | 0.00 | 71 | 1004.9 |
| 20260506003729 | 74 | 315 | 4.0 | 7.0 | 0.00 | 0.00 | 0.00 | 70 | 1004.6 |
| 20260506003229 | 74 | 315 | 5.0 | 9.0 | 0.00 | 0.00 | 0.00 | 70 | 1004.6 |
| 20260506002729 | 75 | 337 | 9.0 | 16.0 | 0.00 | 0.00 | 0.00 | 69 | 1004.8 |
| 20260506002229 | 75 | 315 | 7.0 | 14.0 | 0.00 | 0.00 | 0.00 | 69 | 1004.6 |
| 20260506001729 | 75 | 337 | 7.0 | 12.0 | 0.00 | 0.00 | 0.00 | 69 | 1004.4 |
| 20260506001229 | 76 | 315 | 8.0 | 16.0 | 0.00 | 0.00 | 0.00 | 69 | 1004.4 |
| 20260506000729 | 76 | 315 | 7.0 | 13.0 | 0.00 | 0.00 | 0.00 | 69 | 1004.4 |
| 20260506000229 | 76 | 315 | 7.0 | 13.0 | 0.00 | 0.00 | 0.00 | 68 | 1004.4 |
| 20260505235729 | 76 | 315 | 11.0 | 16.0 | 0.00 | 0.00 | 0.00 | 68 | 1004.3 |
| 20260505235229 | 77 | 337 | 12.0 | 15.0 | 0.00 | 0.00 | 0.00 | 67 | 1004.3 |
| 20260505234729 | 78 | 315 | 7.0 | 14.0 | 0.00 | 0.00 | 0.00 | 65 | 1004.2 |
| 20260505234229 | 79 | 315 | 5.0 | 11.0 | 0.00 | 0.00 | 0.00 | 64 | 1004.1 |
| 20260505233729 | 79 | 315 | 6.0 | 11.0 | 0.00 | 0.00 | 0.00 | 63 | 1004.0 |
| 20260505233229 | 80 | 315 | 11.0 | 20.0 | 0.00 | 0.00 | 0.00 | 62 | 1004.1 |
| 20260505232729 | 80 | 337 | 10.0 | 20.0 | 0.00 | 0.00 | 0.00 | 61 | 1004.0 |
| 20260505232229 | 81 | 315 | 11.0 | 18.0 | 0.00 | 0.00 | 0.00 | 60 | 1003.7 |
| 20260505231730 | 82 | 315 | 11.0 | 19.0 | 0.00 | 0.00 | 0.00 | 57 | 1003.6 |
| 20260505231229 | 83 | 315 | 6.0 | 12.0 | 0.00 | 0.00 | 0.00 | 55 | 1003.4 |
| 20260505230729 | 83 | 315 | 6.0 | 14.0 | 0.00 | 0.00 | 0.00 | 54 | 1003.2 |
| 20260505230229 | 83 | 315 | 4.0 | 8.0 | 0.00 | 0.00 | 0.00 | 54 | 1003.0 |
| 20260505225729 | 84 | 315 | 6.0 | 10.0 | 0.00 | 0.00 | 0.00 | 52 | 1003.1 |
| 20260505225229 | 84 | 315 | 5.0 | 10.0 | 0.00 | 0.00 | 0.00 | 52 | 1003.2 |
| 20260505224729 | 84 | 315 | 5.0 | 11.0 | 0.00 | 0.00 | 0.00 | 51 | 1003.3 |
| 20260505224229 | 85 | 315 | 6.0 | 12.0 | 0.00 | 0.00 | 0.00 | 51 | 1003.1 |
| 20260505223729 | 86 | 315 | 7.0 | 12.0 | 0.00 | 0.00 | 0.00 | 50 | 1002.9 |
| 20260505223229 | 88 | 315 | 5.0 | 12.0 | 0.00 | 0.00 | 0.00 | 48 | 1002.8 |
| 20260505222729 | 90 | 0 | 0.0 | 0.0 | 0.00 | 0.00 | 0.00 | 53 | 1002.4 |
| 20260505222229 | 89 | 0 | 0.0 | 0.0 | 0.00 | 0.00 | 0.00 | 55 | 1002.4 |
| 20260505221729 | 89 | 270 | 2.0 | 5.0 | 0.00 | 0.00 | 0.00 | 55 | 1002.5 |
| 20260505221229 | 88 | 270 | 2.0 | 6.0 | 0.00 | 0.00 | 0.00 | 55 | 1002.4 |
| 20260505220729 | 88 | 247 | 1.0 | 5.0 | 0.00 | 0.00 | 0.00 | 54 | 1002.4 |
| 20260505220229 | 88 | 225 | 1.0 | 5.0 | 0.00 | 0.00 | 0.00 | 55 | 1002.7 |
| 20260505215729 | 88 | 270 | 2.0 | 6.0 | 0.00 | 0.00 | 0.00 | 55 | 1002.7 |
| 20260505215229 | 89 | 270 | 3.0 | 8.0 | 0.00 | 0.00 | 0.00 | 53 | 1002.8 |
| 20260505214730 | 89 | 247 | 2.0 | 5.0 | 0.00 | 0.00 | 0.00 | 53 | 1002.8 |
| 20260505214229 | 90 | 270 | 1.0 | 5.0 | 0.00 | 0.00 | 0.00 | 54 | 1002.7 |
| 20260505213729 | 90 | 270 | 2.0 | 5.0 | 0.00 | 0.00 | 0.00 | 54 | 1002.8 |
| 20260505213229 | 89 | 247 | 1.0 | 3.0 | 0.00 | 0.00 | 0.00 | 58 | 1002.9 |
| 20260505212729 | 88 | 270 | 1.0 | 3.0 | 0.00 | 0.00 | 0.00 | 58 | 1002.8 |
| 20260505212229 | 88 | 225 | 1.0 | 3.0 | 0.00 | 0.00 | 0.00 | 58 | 1002.9 |
| 20260505211729 | 88 | 135 | 2.0 | 10.0 | 0.00 | 0.00 | 0.00 | 56 | 1002.9 |
| 20260505211229 | 89 | 270 | 4.0 | 11.0 | 0.00 | 0.00 | 0.00 | 53 | 1003.1 |
| 20260505210729 | 89 | 247 | 1.0 | 6.0 | 0.00 | 0.00 | 0.00 | 54 | 1003.1 |
| 20260505210229 | 89 | 270 | 2.0 | 9.0 | 0.00 | 0.00 | 0.00 | 57 | 1003.1 |
| 20260505205729 | 89 | 202 | 4.0 | 10.0 | 0.00 | 0.00 | 0.00 | 55 | 1003.2 |
| 20260505205229 | 89 | 270 | 4.0 | 8.0 | 0.00 | 0.00 | 0.00 | 54 | 1003.2 |
| 20260505204729 | 89 | 270 | 1.0 | 3.0 | 0.00 | 0.00 | 0.00 | 58 | 1003.2 |
| 20260505204229 | 88 | 247 | 2.0 | 6.0 | 0.00 | 0.00 | 0.00 | 59 | 1003.2 |
| 20260505203729 | 87 | 270 | 1.0 | 6.0 | 0.00 | 0.00 | 0.00 | 59 | 1003.4 |
| 20260505203229 | 87 | 225 | 0.0 | 4.0 | 0.00 | 0.00 | 0.00 | 59 | 1003.5 |
| 20260505202729 | 87 | 202 | 1.0 | 10.0 | 0.00 | 0.00 | 0.00 | 59 | 1003.6 |
| 20260505202229 | 87 | 225 | 2.0 | 11.0 | 0.00 | 0.00 | 0.00 | 60 | 1003.5 |
| 20260505201729 | 87 | 225 | 1.0 | 4.0 | 0.00 | 0.00 | 0.00 | 61 | 1003.5 |
| 20260505201229 | 86 | 225 | 2.0 | 9.0 | 0.00 | 0.00 | 0.00 | 61 | 1003.4 |
| 20260505200729 | 86 | 247 | 1.0 | 7.0 | 0.00 | 0.00 | 0.00 | 61 | 1003.6 |
| 20260505200229 | 87 | 247 | 2.0 | 5.0 | 0.00 | 0.00 | 0.00 | 61 | 1003.5 |
| 20260505195729 | 87 | 225 | 1.0 | 11.0 | 0.00 | 0.00 | 0.00 | 60 | 1003.6 |
| 20260505195229 | 86 | 225 | 1.0 | 3.0 | 0.00 | 0.00 | 0.00 | 61 | 1003.7 |
| 20260505194729 | 86 | 225 | 1.0 | 3.0 | 0.00 | 0.00 | 0.00 | 60 | 1003.6 |
| 20260505194229 | 86 | 225 | 1.0 | 4.0 | 0.00 | 0.00 | 0.00 | 61 | 1003.6 |
| 20260505193729 | 86 | 270 | 2.0 | 5.0 | 0.00 | 0.00 | 0.00 | 63 | 1003.6 |
| 20260505193229 | 86 | 225 | 2.0 | 6.0 | 0.00 | 0.00 | 0.00 | 62 | 1003.6 |
| 20260505192729 | 85 | 225 | 3.0 | 12.0 | 0.00 | 0.00 | 0.00 | 64 | 1003.6 |
| 20260505192229 | 85 | 225 | 3.0 | 8.0 | 0.00 | 0.00 | 0.00 | 64 | 1003.7 |
| 20260505190145 | 84 | 247 | 2.0 | 6.0 | 0.00 | 0.00 | 0.00 | 64 | 1003.7 |
| 20260505185645 | 84 | 112 | 2.0 | 6.0 | 0.00 | 0.00 | 0.00 | 65 | 1003.7 |
| 20260505185145 | 84 | 112 | 1.0 | 6.0 | 0.00 | 0.00 | 0.00 | 66 | 1003.7 |
| 20260505184645 | 84 | 225 | 1.0 | 6.0 | 0.00 | 0.00 | 0.00 | 66 | 1003.8 |
| 20260505184145 | 84 | 202 | 2.0 | 5.0 | 0.00 | 0.00 | 0.00 | 66 | 1003.8 |
| 20260505183645 | 84 | 225 | 1.0 | 3.0 | 0.00 | 0.00 | 0.00 | 66 | 1003.8 |
| 20260505183145 | 83 | 225 | 1.0 | 6.0 | 0.00 | 0.00 | 0.00 | 66 | 1003.8 |
| 20260505182645 | 83 | 157 | 1.0 | 7.0 | 0.00 | 0.00 | 0.00 | 67 | 1003.9 |
| 20260505182145 | 83 | 270 | 0.0 | 3.0 | 0.00 | 0.00 | 0.00 | 68 | 1004.0 |
| 20260505181645 | 83 | 247 | 2.0 | 5.0 | 0.00 | 0.00 | 0.00 | 67 | 1004.0 |
| 20260505181145 | 83 | 225 | 1.0 | 10.0 | 0.00 | 0.00 | 0.00 | 66 | 1003.9 |
| 20260505180645 | 82 | 225 | 2.0 | 5.0 | 0.00 | 0.00 | 0.00 | 66 | 1003.9 |
| 20260505180145 | 82 | 135 | 1.0 | 9.0 | 0.00 | 0.00 | 0.00 | 68 | 1003.8 |
| 20260505175645 | 82 | 225 | 1.0 | 6.0 | 0.00 | 0.00 | 0.00 | 67 | 1003.9 |
| 20260505175145 | 82 | 225 | 2.0 | 7.0 | 0.00 | 0.00 | 0.00 | 69 | 1003.9 |
| 20260505174645 | 82 | 225 | 1.0 | 6.0 | 0.00 | 0.00 | 0.00 | 67 | 1004.0 |
| 20260505174145 | 82 | 225 | 1.0 | 5.0 | 0.00 | 0.00 | 0.00 | 69 | 1003.9 |
| 20260505173645 | 81 | 225 | 4.0 | 10.0 | 0.00 | 0.00 | 0.00 | 69 | 1003.9 |
| 20260505173145 | 81 | 225 | 2.0 | 7.0 | 0.00 | 0.00 | 0.00 | 69 | 1003.9 |
| 20260505172645 | 81 | 225 | 3.0 | 8.0 | 0.00 | 0.00 | 0.00 | 70 | 1003.9 |
| 20260505172145 | 81 | 225 | 2.0 | 12.0 | 0.00 | 0.00 | 0.00 | 71 | 1003.9 |
| 20260505171645 | 80 | 225 | 2.0 | 13.0 | 0.00 | 0.00 | 0.00 | 71 | 1003.8 |
| 20260505171145 | 80 | 225 | 2.0 | 6.0 | 0.00 | 0.00 | 0.00 | 70 | 1003.8 |
| 20260505170645 | 80 | 225 | 3.0 | 6.0 | 0.00 | 0.00 | 0.00 | 70 | 1004.2 |
| 20260505170145 | 80 | 225 | 2.0 | 10.0 | 0.00 | 0.00 | 0.00 | 71 | 1004.0 |
| 20260505165645 | 80 | 225 | 3.0 | 6.0 | 0.00 | 0.00 | 0.00 | 71 | 1003.9 |
| 20260505165145 | 80 | 225 | 2.0 | 5.0 | 0.00 | 0.00 | 0.00 | 72 | 1003.8 |
| 20260505164645 | 79 | 225 | 2.0 | 6.0 | 0.00 | 0.00 | 0.00 | 72 | 1004.0 |
| 20260505164145 | 79 | 225 | 2.0 | 3.0 | 0.00 | 0.00 | 0.00 | 72 | 1004.0 |
| 20260505163645 | 79 | 225 | 1.0 | 5.0 | 0.00 | 0.00 | 0.00 | 71 | 1004.1 |
| 20260505163145 | 80 | 225 | 1.0 | 6.0 | 0.00 | 0.00 | 0.00 | 70 | 1004.3 |
| 20260505162645 | 80 | 247 | 2.0 | 4.0 | 0.00 | 0.00 | 0.00 | 71 | 1004.2 |
| 20260505162145 | 80 | 225 | 2.0 | 6.0 | 0.00 | 0.00 | 0.00 | 71 | 1004.0 |
| 20260505161645 | 80 | 225 | 1.0 | 11.0 | 0.00 | 0.00 | 0.00 | 70 | 1003.9 |
| 20260505161145 | 80 | 225 | 1.0 | 5.0 | 0.00 | 0.00 | 0.00 | 71 | 1003.9 |
| 20260505160645 | 80 | 225 | 2.0 | 7.0 | 0.00 | 0.00 | 0.00 | 71 | 1003.9 |
| 20260505160145 | 80 | 225 | 3.0 | 14.0 | 0.00 | 0.00 | 0.00 | 71 | 1003.8 |
| 20260505153145 | 78 | 225 | 3.0 | 8.0 | 0.00 | 0.00 | 0.00 | 76 | 1003.7 |
| 20260505152645 | 78 | 247 | 2.0 | 7.0 | 0.00 | 0.00 | 0.00 | 76 | 1003.8 |
| 20260505152145 | 77 | 247 | 2.0 | 7.0 | 0.00 | 0.00 | 0.00 | 77 | 1003.9 |
| 20260505151645 | 77 | 225 | 3.0 | 12.0 | 0.00 | 0.00 | 0.00 | 77 | 1003.8 |
| 20260505151145 | 77 | 225 | 2.0 | 8.0 | 0.00 | 0.00 | 0.00 | 76 | 1003.9 |
| 20260505150645 | 77 | 225 | 2.0 | 5.0 | 0.00 | 0.00 | 0.00 | 78 | 1003.8 |
| 20260505150145 | 77 | 247 | 2.0 | 6.0 | 0.00 | 0.00 | 0.00 | 79 | 1003.8 |
| 20260505140645 | 73 | 225 | 2.0 | 6.0 | 0.00 | 0.00 | 0.00 | 84 | 1003.8 |
| 20260505140145 | 73 | 225 | 1.0 | 4.0 | 0.00 | 0.00 | 0.00 | 84 | 1003.8 |
| 20260505130145 | 72 | 225 | 2.0 | 11.0 | 0.00 | 0.00 | 0.00 | 85 | 1003.9 |
| 20260505124645 | 71 | 225 | 4.0 | 15.0 | 0.00 | 0.00 | 0.00 | 86 | 1003.6 |
| 20260505124145 | 71 | 225 | 3.0 | 11.0 | 0.00 | 0.00 | 0.00 | 86 | 1003.6 |
| 20260505123645 | 71 | 180 | 3.0 | 11.0 | 0.00 | 0.00 | 0.00 | 86 | 1003.5 |
| 20260505123145 | 71 | 225 | 4.0 | 13.0 | 0.00 | 0.00 | 0.00 | 86 | 1003.6 |
| 20260505122645 | 71 | 180 | 3.0 | 8.0 | 0.00 | 0.00 | 0.00 | 87 | 1003.6 |
| 20260505122145 | 71 | 180 | 3.0 | 9.0 | 0.00 | 0.00 | 0.00 | 87 | 1003.6 |
| 20260505121645 | 71 | 247 | 3.0 | 8.0 | 0.00 | 0.00 | 0.00 | 87 | 1003.5 |
| 20260505121145 | 71 | 247 | 2.0 | 8.0 | 0.00 | 0.00 | 0.00 | 87 | 1003.4 |
| 20260505120645 | 70 | 180 | 2.0 | 8.0 | 0.00 | 0.00 | 0.00 | 87 | 1003.3 |
| 20260505120145 | 70 | 225 | 2.0 | 5.0 | 0.00 | 0.00 | 0.00 | 87 | 1003.3 |
| 20260505115645 | 70 | 225 | 2.0 | 6.0 | 0.00 | 0.00 | 0.00 | 87 | 1003.3 |
| 20260505115145 | 70 | 180 | 4.0 | 9.0 | 0.00 | 0.00 | 0.00 | 87 | 1003.2 |
| 20260505114645 | 70 | 180 | 3.0 | 9.0 | 0.00 | 0.00 | 0.00 | 87 | 1003.1 |
| 20260505114145 | 70 | 225 | 2.0 | 12.0 | 0.00 | 0.00 | 0.00 | 87 | 1003.1 |
| 20260505113645 | 70 | 180 | 2.0 | 6.0 | 0.00 | 0.00 | 0.00 | 87 | 1003.2 |
| 20260505113145 | 71 | 247 | 2.0 | 10.0 | 0.00 | 0.00 | 0.00 | 86 | 1003.3 |
| 20260505112645 | 71 | 202 | 4.0 | 12.0 | 0.00 | 0.00 | 0.00 | 86 | 1003.2 |
| 20260505112145 | 71 | 247 | 2.0 | 10.0 | 0.00 | 0.00 | 0.00 | 86 | 1003.1 |
| 20260505111645 | 71 | 225 | 3.0 | 11.0 | 0.00 | 0.00 | 0.00 | 86 | 1003.1 |
| 20260505111145 | 71 | 180 | 3.0 | 9.0 | 0.00 | 0.00 | 0.00 | 85 | 1003.0 |
| 20260505110645 | 71 | 225 | 2.0 | 10.0 | 0.00 | 0.00 | 0.00 | 85 | 1003.0 |
| 20260505110145 | 71 | 202 | 1.0 | 8.0 | 0.00 | 0.00 | 0.00 | 85 | 1003.1 |
| 20260505102145 | 71 | 225 | 3.0 | 11.0 | 0.00 | 0.00 | 0.00 | 86 | 1003.1 |
| 20260505101645 | 71 | 225 | 2.0 | 11.0 | 0.00 | 0.00 | 0.00 | 86 | 1003.1 |
| 20260505101145 | 71 | 225 | 4.0 | 16.0 | 0.00 | 0.00 | 0.00 | 86 | 1003.1 |
| 20260505100645 | 71 | 157 | 3.0 | 9.0 | 0.00 | 0.00 | 0.00 | 86 | 1003.0 |
| 20260505100145 | 71 | 202 | 4.0 | 14.0 | 0.00 | 0.00 | 0.00 | 86 | 1003.0 |
| 20260505095645 | 71 | 180 | 3.0 | 12.0 | 0.00 | 0.00 | 0.00 | 86 | 1003.1 |
| 20260505095145 | 71 | 225 | 3.0 | 11.0 | 0.00 | 0.00 | 0.00 | 86 | 1003.2 |
| 20260505094645 | 71 | 202 | 3.0 | 13.0 | 0.00 | 0.00 | 0.00 | 86 | 1003.3 |
| 20260505094145 | 71 | 225 | 3.0 | 12.0 | 0.00 | 0.00 | 0.00 | 86 | 1003.1 |
| 20260505093645 | 71 | 157 | 3.0 | 8.0 | 0.00 | 0.00 | 0.00 | 86 | 1003.3 |
| 20260505093145 | 71 | 225 | 3.0 | 8.0 | 0.00 | 0.00 | 0.00 | 86 | 1003.3 |
| 20260505092645 | 71 | 225 | 3.0 | 13.0 | 0.00 | 0.00 | 0.00 | 86 | 1003.5 |
| 20260505092145 | 70 | 202 | 3.0 | 11.0 | 0.00 | 0.00 | 0.00 | 86 | 1003.5 |
| 20260505091645 | 70 | 180 | 2.0 | 12.0 | 0.00 | 0.00 | 0.00 | 86 | 1003.5 |
| 20260505091145 | 70 | 225 | 3.0 | 7.0 | 0.00 | 0.00 | 0.00 | 86 | 1003.5 |
| 20260505090645 | 70 | 225 | 3.0 | 13.0 | 0.00 | 0.00 | 0.00 | 86 | 1003.4 |
| 20260505090145 | 70 | 225 | 3.0 | 15.0 | 0.00 | 0.00 | 0.00 | 86 | 1003.5 |
| 20260505085645 | 70 | 225 | 4.0 | 15.0 | 0.00 | 0.00 | 0.00 | 86 | 1003.5 |
| 20260505085145 | 70 | 225 | 3.0 | 13.0 | 0.00 | 0.00 | 0.00 | 86 | 1003.4 |
| 20260505084645 | 70 | 225 | 3.0 | 9.0 | 0.00 | 0.00 | 0.00 | 86 | 1003.4 |
| 20260505084145 | 71 | 225 | 4.0 | 13.0 | 0.00 | 0.00 | 0.00 | 86 | 1003.5 |
| 20260505083645 | 71 | 202 | 4.0 | 14.0 | 0.00 | 0.00 | 0.00 | 85 | 1003.4 |
| 20260505083145 | 71 | 225 | 2.0 | 6.0 | 0.00 | 0.00 | 0.00 | 85 | 1003.4 |
| 20260505082645 | 71 | 225 | 4.0 | 13.0 | 0.00 | 0.00 | 0.00 | 85 | 1003.4 |
| 20260505082145 | 71 | 202 | 3.0 | 11.0 | 0.00 | 0.00 | 0.00 | 85 | 1003.4 |
| 20260505081645 | 71 | 202 | 4.0 | 13.0 | 0.00 | 0.00 | 0.00 | 85 | 1003.4 |
| 20260505081145 | 71 | 225 | 3.0 | 9.0 | 0.00 | 0.00 | 0.00 | 84 | 1003.6 |
| 20260505080645 | 71 | 225 | 4.0 | 12.0 | 0.00 | 0.00 | 0.00 | 84 | 1003.6 |
| 20260505080145 | 71 | 202 | 2.0 | 10.0 | 0.00 | 0.00 | 0.00 | 84 | 1003.6 |
| 20260505075645 | 71 | 225 | 3.0 | 9.0 | 0.00 | 0.00 | 0.00 | 84 | 1003.7 |
| 20260505075145 | 71 | 180 | 3.0 | 9.0 | 0.00 | 0.00 | 0.00 | 84 | 1003.7 |
| 20260505074645 | 71 | 225 | 3.0 | 10.0 | 0.00 | 0.00 | 0.00 | 83 | 1003.8 |
| 20260505074145 | 71 | 225 | 2.0 | 10.0 | 0.00 | 0.00 | 0.00 | 83 | 1003.9 |
| 20260505073645 | 71 | 225 | 3.0 | 9.0 | 0.00 | 0.00 | 0.00 | 83 | 1004.0 |
| 20260505073145 | 71 | 225 | 3.0 | 12.0 | 0.00 | 0.00 | 0.00 | 83 | 1004.0 |
| 20260505072645 | 71 | 225 | 2.0 | 9.0 | 0.00 | 0.00 | 0.00 | 82 | 1004.1 |
| 20260505072145 | 72 | 225 | 3.0 | 12.0 | 0.00 | 0.00 | 0.00 | 82 | 1004.1 |
| 20260505071645 | 72 | 225 | 2.0 | 12.0 | 0.00 | 0.00 | 0.00 | 82 | 1004.1 |
| 20260505071145 | 72 | 202 | 3.0 | 13.0 | 0.00 | 0.00 | 0.00 | 82 | 1004.2 |
| 20260505070645 | 72 | 225 | 4.0 | 13.0 | 0.00 | 0.00 | 0.00 | 82 | 1004.2 |
| 20260505070145 | 72 | 225 | 3.0 | 6.0 | 0.00 | 0.00 | 0.00 | 81 | 1004.4 |
| 20260505065645 | 72 | 202 | 3.0 | 11.0 | 0.00 | 0.00 | 0.00 | 81 | 1004.4 |
| 20260505065145 | 72 | 225 | 3.0 | 11.0 | 0.00 | 0.00 | 0.00 | 81 | 1004.6 |
| 20260505064645 | 72 | 225 | 3.0 | 11.0 | 0.00 | 0.00 | 0.00 | 81 | 1004.6 |
| 20260505064145 | 72 | 202 | 3.0 | 10.0 | 0.00 | 0.00 | 0.00 | 81 | 1004.6 |
| 20260505063645 | 72 | 202 | 4.0 | 15.0 | 0.00 | 0.00 | 0.00 | 81 | 1004.7 |
| 20260505063145 | 72 | 225 | 2.0 | 10.0 | 0.00 | 0.00 | 0.00 | 80 | 1004.8 |
| 20260505062645 | 72 | 225 | 3.0 | 12.0 | 0.00 | 0.00 | 0.00 | 80 | 1004.7 |
| 20260505062145 | 72 | 247 | 3.0 | 7.0 | 0.00 | 0.00 | 0.00 | 80 | 1004.7 |
| 20260505061645 | 72 | 180 | 4.0 | 15.0 | 0.00 | 0.00 | 0.00 | 80 | 1004.9 |
| 20260505061145 | 72 | 225 | 4.0 | 18.0 | 0.00 | 0.00 | 0.00 | 80 | 1004.7 |
| 20260505060645 | 72 | 225 | 6.0 | 18.0 | 0.00 | 0.00 | 0.00 | 80 | 1004.7 |
| 20260505060145 | 72 | 180 | 6.0 | 19.0 | 0.00 | 0.00 | 0.00 | 80 | 1004.7 |
| 20260505055645 | 72 | 180 | 7.0 | 15.0 | 0.00 | 0.00 | 0.00 | 80 | 1004.7 |
| 20260505055145 | 72 | 225 | 5.0 | 12.0 | 0.00 | 0.00 | 0.00 | 79 | 1004.9 |
| 20260505054645 | 72 | 180 | 5.0 | 13.0 | 0.00 | 0.00 | 0.00 | 79 | 1005.0 |
| 20260505054145 | 72 | 180 | 5.0 | 12.0 | 0.00 | 0.00 | 0.00 | 79 | 1005.1 |
| 20260505053645 | 72 | 180 | 6.0 | 18.0 | 0.00 | 0.00 | 0.00 | 79 | 1005.1 |
| 20260505053145 | 72 | 180 | 5.0 | 11.0 | 0.00 | 0.00 | 0.00 | 79 | 1005.1 |
| 20260505052645 | 72 | 180 | 6.0 | 11.0 | 0.00 | 0.00 | 0.00 | 78 | 1005.2 |
| 20260505052145 | 72 | 180 | 5.0 | 12.0 | 0.00 | 0.00 | 0.00 | 78 | 1005.3 |
| 20260505051645 | 72 | 180 | 6.0 | 14.0 | 0.00 | 0.00 | 0.00 | 78 | 1005.3 |
| 20260505051145 | 72 | 202 | 6.0 | 17.0 | 0.00 | 0.00 | 0.00 | 77 | 1005.4 |
| 20260505050645 | 72 | 180 | 7.0 | 19.0 | 0.00 | 0.00 | 0.00 | 77 | 1005.3 |
| 20260505050145 | 72 | 180 | 8.0 | 17.0 | 0.00 | 0.00 | 0.00 | 77 | 1005.3 |
| 20260505041645 | 73 | 180 | 6.0 | 15.0 | 0.00 | 0.00 | 0.00 | 75 | 1005.5 |
| 20260505041145 | 73 | 180 | 7.0 | 15.0 | 0.00 | 0.00 | 0.00 | 75 | 1005.6 |
| 20260505040645 | 73 | 157 | 7.0 | 17.0 | 0.00 | 0.00 | 0.00 | 75 | 1005.7 |
| 20260505040145 | 73 | 180 | 6.0 | 13.0 | 0.00 | 0.00 | 0.00 | 74 | 1005.6 |
| 20260505035645 | 73 | 180 | 7.0 | 15.0 | 0.00 | 0.00 | 0.00 | 74 | 1005.6 |
| 20260505035145 | 73 | 180 | 7.0 | 14.0 | 0.00 | 0.00 | 0.00 | 74 | 1005.5 |
| 20260505034645 | 73 | 180 | 8.0 | 15.0 | 0.00 | 0.00 | 0.00 | 74 | 1005.4 |
| 20260505034145 | 73 | 180 | 7.0 | 17.0 | 0.00 | 0.00 | 0.00 | 74 | 1005.6 |
| 20260505033645 | 73 | 180 | 7.0 | 15.0 | 0.00 | 0.00 | 0.00 | 74 | 1005.5 |
| 20260505033145 | 73 | 180 | 8.0 | 18.0 | 0.00 | 0.00 | 0.00 | 74 | 1005.7 |
| 20260505032645 | 73 | 180 | 8.0 | 17.0 | 0.00 | 0.00 | 0.00 | 73 | 1005.6 |
| 20260505032145 | 73 | 180 | 6.0 | 15.0 | 0.00 | 0.00 | 0.00 | 73 | 1005.7 |
| 20260505031645 | 74 | 180 | 7.0 | 14.0 | 0.00 | 0.00 | 0.00 | 73 | 1005.6 |
| 20260505031145 | 74 | 180 | 6.0 | 15.0 | 0.00 | 0.00 | 0.00 | 73 | 1005.5 |
| 20260505030645 | 74 | 180 | 6.0 | 15.0 | 0.00 | 0.00 | 0.00 | 73 | 1005.6 |
| 20260505030145 | 74 | 180 | 6.0 | 14.0 | 0.00 | 0.00 | 0.00 | 73 | 1005.5 |
| 20260505025645 | 74 | 180 | 5.0 | 15.0 | 0.00 | 0.00 | 0.00 | 73 | 1005.5 |
| 20260505025145 | 74 | 180 | 5.0 | 12.0 | 0.00 | 0.00 | 0.00 | 72 | 1005.5 |